• In Hungary
  • List of Countries
  • For 7 days
  • Water Temperature
  • Satellite Maps
  • Weather Map
  • News
  • Weather Widgets
  • user-avatar
    Login

    Hourly Weather Lyndy

    Today, 25 May, Friday

    Time Temperature Precipitation Wind Pressure Humidity
    00:00 +13°C° 0 mm 3 mps 749 mmHg 91%
    01:00 +12°C° 0 mm 3 mps 750 mmHg 91%
    02:00 +12°C° 0 mm 3 mps 750 mmHg 92%
    03:00 +12°C° 0 mm 3 mps 750 mmHg 92%
    04:00 +12°C° 0 mm 3 mps 750 mmHg 92%
    05:00 +12°C° 0 mm 3 mps 751 mmHg 92%
    06:00 +14°C° 0 mm 3 mps 751 mmHg 88%
    07:00 +15°C° 0 mm 4 mps 751 mmHg 85%
    08:00 +18°C° 0 mm 4 mps 752 mmHg 81%
    09:00 +19°C° 0 mm 4 mps 752 mmHg 76%
    10:00 +20°C° 0 mm 4 mps 752 mmHg 71%
    11:00 +21°C° 0 mm 4 mps 752 mmHg 66%
    12:00 +21°C° 0 mm 5 mps 752 mmHg 63%
    13:00 +21°C° 0 mm 5 mps 752 mmHg 61%
    14:00 +22°C° 0 mm 5 mps 752 mmHg 58%
    15:00 +21°C° 0 mm 5 mps 752 mmHg 59%
    16:00 +20°C° 0 mm 4 mps 752 mmHg 61%
    17:00 +20°C° 0 mm 4 mps 753 mmHg 62%
    18:00 +18°C° 0 mm 4 mps 753 mmHg 66%
    19:00 +15°C° 0 mm 4 mps 753 mmHg 69%
    20:00 +13°C° 0 mm 3 mps 754 mmHg 73%
    21:00 +12°C° 0 mm 3 mps 754 mmHg 74%
    22:00 +11°C° 0 mm 3 mps 755 mmHg 75%
    23:00 +11°C° 0 mm 3 mps 755 mmHg 76%

    Tomorrow, 26 May, Saturday

    Time Temperature Precipitation Wind Pressure Humidity
    00:00 +10°C° 0 mm 3 mps 755 mmHg 78%
    01:00 +9°C° 0 mm 3 mps 756 mmHg 80%
    02:00 +9°C° 0 mm 3 mps 756 mmHg 82%
    03:00 +9°C° 0 mm 3 mps 757 mmHg 82%
    04:00 +9°C° 0 mm 3 mps 757 mmHg 82%
    05:00 +9°C° 0 mm 3 mps 757 mmHg 82%
    06:00 +10°C° 0 mm 3 mps 757 mmHg 77%
    07:00 +12°C° 0 mm 3 mps 758 mmHg 71%
    08:00 +14°C° 0 mm 4 mps 758 mmHg 66%
    09:00 +15°C° 0 mm 4 mps 758 mmHg 62%
    10:00 +17°C° 0 mm 4 mps 758 mmHg 58%
    11:00 +18°C° 0 mm 4 mps 758 mmHg 54%
    12:00 +19°C° 0 mm 4 mps 758 mmHg 53%
    13:00 +19°C° 0 mm 4 mps 758 mmHg 53%
    14:00 +20°C° 0 mm 4 mps 757 mmHg 52%
    15:00 +20°C° 0 mm 3 mps 757 mmHg 54%
    16:00 +20°C° 0 mm 3 mps 757 mmHg 57%
    17:00 +19°C° 0 mm 3 mps 756 mmHg 59%
    18:00 +18°C° 0 mm 3 mps 756 mmHg 65%
    19:00 +16°C° 0 mm 2 mps 756 mmHg 70%
    20:00 +14°C° 0 mm 2 mps 757 mmHg 76%
    21:00 +13°C° 0 mm 2 mps 757 mmHg 78%
    22:00 +12°C° 0 mm 2 mps 757 mmHg 81%
    23:00 +10°C° 0 mm 2 mps 757 mmHg 83%

    Day after tomorrow, 27 May, Sunday

    Time Temperature Precipitation Wind Pressure Humidity
    00:00 +10°C° 0 mm 2 mps 757 mmHg 84%
    01:00 +9°C° 0 mm 2 mps 757 mmHg 85%
    02:00 +8°C° 0 mm 2 mps 757 mmHg 86%
    03:00 +9°C° 0 mm 2 mps 757 mmHg 86%
    04:00 +9°C° 0 mm 2 mps 757 mmHg 86%
    05:00 +9°C° 0 mm 2 mps 757 mmHg 86%
    06:00 +12°C° 0 mm 2 mps 757 mmHg 80%
    07:00 +13°C° 0 mm 2 mps 757 mmHg 74%
    08:00 +15°C° 0 mm 2 mps 757 mmHg 68%
    09:00 +16°C° 0 mm 2 mps 757 mmHg 64%
    10:00 +17°C° 0 mm 2 mps 757 mmHg 59%
    11:00 +18°C° 0 mm 2 mps 757 mmHg 54%
    12:00 +19°C° 0 mm 2 mps 756 mmHg 53%
    13:00 +20°C° 0 mm 2 mps 756 mmHg 51%
    14:00 +20°C° 0 mm 2 mps 755 mmHg 50%
    15:00 +21°C° 0 mm 1 mps 755 mmHg 51%
    16:00 +21°C° 0 mm 1 mps 755 mmHg 52%
    17:00 +21°C° 0 mm 1 mps 754 mmHg 53%
    18:00 +19°C° 0 mm 1 mps 754 mmHg 59%
    19:00 +16°C° 0 mm 1 mps 754 mmHg 66%
    20:00 +13°C° 0 mm 0 mps 754 mmHg 72%
    21:00 +14°C° 0 mm 1 mps 754 mmHg 74%
    22:00 +13°C° 0 mm 1 mps 754 mmHg 76%
    23:00 +12°C° 0 mm 1 mps 755 mmHg 78%

    28 May, Monday

    Time Temperature Precipitation Wind Pressure Humidity
    00:00 +12°C° 0 mm 1 mps 755 mmHg 79%
    01:00 +12°C° 0 mm 1 mps 755 mmHg 81%
    02:00 +11°C° 0 mm 1 mps 755 mmHg 82%
    03:00 +12°C° 0 mm 1 mps 755 mmHg 83%
    04:00 +12°C° 0 mm 1 mps 755 mmHg 84%
    05:00 +12°C° 0 mm 2 mps 755 mmHg 84%
    06:00 +14°C° 0 mm 2 mps 755 mmHg 80%
    07:00 +16°C° 0 mm 2 mps 755 mmHg 75%
    08:00 +18°C° 0 mm 2 mps 755 mmHg 71%
    09:00 +20°C° 0 mm 2 mps 755 mmHg 67%
    10:00 +21°C° 0 mm 2 mps 755 mmHg 64%
    11:00 +23°C° 0 mm 2 mps 756 mmHg 61%
    12:00 +24°C° 0.1 mm 3 mps 755 mmHg 59%
    13:00 +24°C° 0.1 mm 3 mps 755 mmHg 58%
    14:00 +24°C° 0.1 mm 3 mps 755 mmHg 57%
    15:00 +24°C° 0 mm 3 mps 755 mmHg 59%
    16:00 +24°C° 0 mm 2 mps 755 mmHg 60%
    17:00 +24°C° 0 mm 2 mps 755 mmHg 62%
    18:00 +21°C° 0 mm 2 mps 755 mmHg 66%
    19:00 +19°C° 0 mm 3 mps 755 mmHg 71%
    20:00 +17°C° 0 mm 3 mps 755 mmHg 75%
    21:00 +16°C° 0 mm 3 mps 756 mmHg 76%
    22:00 +14°C° 0 mm 3 mps 756 mmHg 77%
    23:00 +13°C° 0 mm 3 mps 757 mmHg 78%

    29 May, Tuesday

    Time Temperature Precipitation Wind Pressure Humidity
    00:00 +12°C° 0 mm 3 mps 757 mmHg 78%
    01:00 +11°C° 0 mm 3 mps 757 mmHg 79%
    02:00 +11°C° 0 mm 3 mps 757 mmHg 80%
    03:00 +12°C° 0 mm 2 mps 757 mmHg 81%
    04:00 +12°C° 0 mm 2 mps 758 mmHg 82%
    05:00 +12°C° 0 mm 2 mps 758 mmHg 83%
    06:00 +14°C° 0 mm 2 mps 758 mmHg 79%
    07:00 +16°C° 0 mm 2 mps 758 mmHg 74%
    08:00 +18°C° 0 mm 2 mps 758 mmHg 69%
    09:00 +19°C° 0 mm 2 mps 758 mmHg 65%
    10:00 +20°C° 0 mm 2 mps 757 mmHg 60%
    11:00 +23°C° 0 mm 2 mps 757 mmHg 55%
    12:00 +23°C° 0 mm 2 mps 757 mmHg 54%
    13:00 +24°C° 0 mm 1 mps 757 mmHg 52%
    14:00 +24°C° 0 mm 1 mps 756 mmHg 50%
    15:00 +24°C° 0 mm 1 mps 756 mmHg 52%
    16:00 +24°C° 0 mm 2 mps 755 mmHg 55%
    17:00 +24°C° 0 mm 2 mps 755 mmHg 57%
    18:00 +21°C° 0 mm 2 mps 755 mmHg 63%
    19:00 +20°C° 0 mm 1 mps 754 mmHg 69%
    20:00 +18°C° 0 mm 1 mps 754 mmHg 74%
    21:00 +16°C° 0 mm 2 mps 754 mmHg 77%
    22:00 +15°C° 0 mm 2 mps 754 mmHg 79%
    23:00 +14°C° 0 mm 2 mps 754 mmHg 81%

    30 May, Wednesday

    Time Temperature Precipitation Wind Pressure Humidity
    00:00 +14°C° 0 mm 2 mps 754 mmHg 83%
    01:00 +13°C° 0 mm 2 mps 754 mmHg 85%
    02:00 +13°C° 0 mm 2 mps 753 mmHg 86%
    03:00 +13°C° 0 mm 2 mps 753 mmHg 86%
    04:00 +13°C° 0 mm 2 mps 753 mmHg 86%
    05:00 +13°C° 0 mm 2 mps 753 mmHg 87%
    06:00 +15°C° 0 mm 2 mps 752 mmHg 82%
    07:00 +17°C° 0 mm 3 mps 752 mmHg 78%
    08:00 +19°C° 0 mm 3 mps 752 mmHg 74%
    09:00 +20°C° 0 mm 3 mps 752 mmHg 70%
    10:00 +22°C° 0 mm 3 mps 751 mmHg 66%
    11:00 +24°C° 0 mm 3 mps 751 mmHg 62%
    12:00 +25°C° 0 mm 3 mps 750 mmHg 60%
    13:00 +25°C° 0 mm 4 mps 750 mmHg 59%
    14:00 +26°C° 0 mm 4 mps 750 mmHg 58%
    15:00 +25°C° 0 mm 3 mps 749 mmHg 61%
    16:00 +25°C° 0 mm 3 mps 749 mmHg 63%
    17:00 +25°C° 0 mm 3 mps 749 mmHg 66%
    18:00 +22°C° 0 mm 3 mps 748 mmHg 70%
    19:00 +21°C° 0 mm 3 mps 748 mmHg 75%
    20:00 +19°C° 0 mm 2 mps 748 mmHg 80%
    21:00 +18°C° 0 mm 2 mps 748 mmHg 80%
    22:00 +18°C° 0 mm 3 mps 748 mmHg 80%
    23:00 +17°C° 0 mm 3 mps 748 mmHg 80%
    Show more